Simultaneous Nadir Overpasses (SNOs) Predictions

Prediction of SNOs between AQUA and METOP-A Satellite Orbit:

Table of predicted SNOs for the next 14.0 days since TLE Epoch: 12/5/2015
Index Date (AQUA) Time (AQUA) Lat,Lon (AQUA) SZA (AQUA ) Date (METOP-A) Time (METOP-A) Lat,Lon (METOP-A) SZA (METOP-A ) Distance(km) Time Diff (sec)
1 12/05/2015 22:12:32 73.86,-159.01 96.21 12/05/2015 22:12:00 73.87,-159.04 96.22 1.45 32
2 12/05/2015 23:01:59 -73.93, 8.48 83.72 12/05/2015 23:02:41 -73.93, 8.43 83.72 1.42 42
3 12/08/2015 17:46:48 73.89, -92.64 96.56 12/08/2015 17:46:24 73.89, -92.57 96.57 2.29 24
4 12/08/2015 18:36:15 -73.95, 74.86 83.37 12/08/2015 18:37:05 -73.96, 74.90 83.37 1.46 50
5 12/11/2015 12:31:28 -73.48, 167.05 83.60 12/11/2015 12:30:18 -73.45, 165.46 83.59 50.33 70
6 12/11/2015 13:21:03 73.88, -26.19 96.83 12/11/2015 13:20:49 73.87, -26.23 96.81 2.22 14
7 12/11/2015 14:10:30 -73.94, 141.32 83.11 12/11/2015 14:11:30 -73.93, 141.24 83.13 2.68 60
8 12/14/2015 08:05:48 -73.80,-127.20 83.06 12/14/2015 08:04:35 -73.77,-127.40 83.08 6.96 73
9 12/14/2015 08:55:17 73.90, 40.22 97.05 12/14/2015 08:55:12 73.88, 40.22 97.04 1.36 5
10 12/14/2015 09:44:44 -73.95,-152.26 82.90 12/14/2015 09:45:53 -73.95,-152.30 82.90 1.41 69
11 12/17/2015 03:40:03 -73.82, -60.82 82.89 12/17/2015 03:38:58 -73.83, -60.84 82.87 0.98 65
12 12/17/2015 04:29:31 73.88, 106.71 97.18 12/17/2015 04:29:36 73.90, 106.66 97.20 2.94 5




NCC Satellite Simultaneous Nadir Overpasses (SNOs) Prediction Service
